Location: Cisewo
(53.3833°N, 14.9000°E)
Time: 13:32:47
(UTC+00:00)

Cosmos 1818 - Pass Details

Date: 18 April 2021
Orbit: 772 x 802 km, 65.0° (Epoch: 16 May)

Event Time Altitude Azimuth Distance (km) Brightness Sun altitude
Rises 20:49:23 0° 237° (WSW) 3,284 6.8 -19.8°
Reaches altitude 10° 20:51:50 10° 241° (WSW) 2,361 6.1 -20.0°
Maximum altitude 20:57:12 59° 321° (NW) 922 4.2 -20.4°
Drops below altitude 10° 21:02:38 10° 41° (NE) 2,386 6.3 -20.8°
Sets 21:05:07 0° 46° (NE) 3,321 7.0 -21.0°
